| time (UTC) | temp F | wind direction | speed MPH | gust MPH | rain 1hr in | rain 24hr in | rain mn in | humidity % | barometer mb |
| 20260510200026 | 56 | 300 | 7.0 | 18.0 | 0.00 | 0.25 | 0.05 | 48 | 1018.0 |
| 20260510194526 | 56 | 285 | 4.0 | 16.0 | 0.00 | 0.25 | 0.05 | 48 | 1017.9 |
| 20260510193009 | 57 | 263 | 4.0 | 10.0 | 0.00 | 0.25 | 0.05 | 46 | 1017.7 |
| 20260510191511 | 57 | 335 | 5.0 | 12.0 | 0.00 | 0.25 | 0.05 | 47 | 1017.6 |
| 20260510190012 | 57 | 296 | 3.0 | 10.0 | 0.00 | 0.25 | 0.05 | 46 | 1017.6 |
| 20260510184522 | 57 | 295 | 4.0 | 11.0 | 0.00 | 0.25 | 0.05 | 48 | 1017.5 |
| 20260510183022 | 56 | 277 | 2.0 | 12.0 | 0.00 | 0.25 | 0.05 | 49 | 1017.4 |
| 20260510181519 | 56 | 227 | 4.0 | 12.0 | 0.00 | 0.25 | 0.05 | 50 | 1017.3 |
| 20260510180016 | 58 | 294 | 4.0 | 15.0 | 0.00 | 0.25 | 0.05 | 47 | 1017.2 |
| 20260510174513 | 56 | 242 | 3.0 | 10.0 | 0.00 | 0.25 | 0.05 | 50 | 1017.2 |
| 20260510173013 | 57 | 327 | 6.0 | 14.0 | 0.00 | 0.25 | 0.05 | 53 | 1017.1 |
| 20260510171525 | 57 | 274 | 3.0 | 12.0 | 0.00 | 0.25 | 0.05 | 57 | 1016.9 |
| 20260510170025 | 57 | 69 | 1.0 | 9.0 | 0.00 | 0.25 | 0.05 | 56 | 1016.7 |
| 20260510164528 | 57 | 259 | 3.0 | 11.0 | 0.00 | 0.25 | 0.05 | 53 | 1016.7 |
| 20260510163020 | 55 | 308 | 2.0 | 8.0 | 0.00 | 0.25 | 0.05 | 52 | 1016.6 |
| 20260510161517 | 57 | 348 | 2.0 | 6.0 | 0.00 | 0.25 | 0.05 | 53 | 1016.7 |
| 20260510160014 | 56 | 350 | 3.0 | 11.0 | 0.00 | 0.25 | 0.05 | 53 | 1016.7 |
| 20260510154513 | 57 | 338 | 3.0 | 9.0 | 0.00 | 0.25 | 0.05 | 52 | 1016.6 |
| 20260510153029 | 55 | 311 | 3.0 | 10.0 | 0.00 | 0.25 | 0.05 | 51 | 1016.6 |
| 20260510151524 | 55 | 352 | 1.0 | 11.0 | 0.00 | 0.25 | 0.05 | 52 | 1016.5 |
| 20260510150024 | 55 | 255 | 3.0 | 10.0 | 0.00 | 0.25 | 0.05 | 51 | 1016.4 |
| 20260510144531 | 55 | 251 | 2.0 | 9.0 | 0.00 | 0.25 | 0.05 | 50 | 1016.1 |
| 20260510143010 | 55 | 34 | 6.0 | 11.0 | 0.00 | 0.25 | 0.05 | 53 | 1015.9 |
| 20260510141508 | 55 | 84 | 4.0 | 10.0 | 0.00 | 0.25 | 0.05 | 53 | 1015.8 |
| 20260510140004 | 55 | 37 | 5.0 | 12.0 | 0.00 | 0.25 | 0.05 | 50 | 1015.6 |
| 20260510134505 | 54 | 34 | 4.0 | 10.0 | 0.00 | 0.25 | 0.05 | 55 | 1015.5 |
| 20260510133004 | 53 | 28 | 3.0 | 11.0 | 0.00 | 0.25 | 0.05 | 54 | 1015.3 |
| 20260510131504 | 53 | 360 | 2.0 | 7.0 | 0.00 | 0.25 | 0.05 | 56 | 1015.2 |
| 20260510130006 | 51 | 14 | 3.0 | 10.0 | 0.00 | 0.25 | 0.05 | 55 | 1014.8 |
| 20260510124506 | 52 | 345 | 3.0 | 11.0 | 0.00 | 0.25 | 0.05 | 58 | 1014.7 |
| 20260510123007 | 52 | 350 | 3.0 | 9.0 | 0.00 | 0.25 | 0.05 | 60 | 1014.5 |
| 20260510121505 | 51 | 284 | 2.0 | 8.0 | 0.00 | 0.25 | 0.05 | 61 | 1014.4 |
| 20260510120026 | 50 | 255 | 2.0 | 4.0 | 0.00 | 0.25 | 0.05 | 65 | 1014.2 |
| 20260510114508 | 47 | 331 | 0.0 | 4.0 | 0.00 | 0.25 | 0.05 | 68 | 1014.0 |
| 20260510113026 | 47 | 317 | 2.0 | 4.0 | 0.00 | 0.25 | 0.05 | 69 | 1013.9 |
| 20260510111524 | 47 | 336 | 0.0 | 2.0 | 0.00 | 0.25 | 0.05 | 70 | 1013.7 |
| 20260510110022 | 46 | 352 | 1.0 | 4.0 | 0.00 | 0.25 | 0.05 | 70 | 1013.3 |
| 20260510104519 | 46 | 351 | 0.0 | 2.0 | 0.00 | 0.25 | 0.05 | 74 | 1012.8 |
| 20260510103015 | 46 | 352 | 1.0 | 2.0 | 0.00 | 0.25 | 0.05 | 74 | 1012.4 |
| 20260510101511 | 46 | 333 | 0.0 | 3.0 | 0.00 | 0.25 | 0.05 | 76 | 1012.1 |
| 20260510100024 | 45 | 305 | 1.0 | 3.0 | 0.00 | 0.25 | 0.05 | 79 | 1011.7 |
| 20260510094525 | 46 | 340 | 0.0 | 2.0 | 0.00 | 0.25 | 0.05 | 78 | 1011.1 |
| 20260510093028 | 46 | 329 | 0.0 | 2.0 | 0.00 | 0.25 | 0.05 | 78 | 1011.1 |
| 20260510091521 | 47 | 15 | 0.0 | 2.0 | 0.00 | 0.25 | 0.05 | 74 | 1011.0 |
| 20260510090027 | 47 | 22 | 0.0 | 5.0 | 0.00 | 0.25 | 0.05 | 70 | 1011.4 |
| 20260510084528 | 48 | 47 | 2.0 | 7.0 | 0.00 | 0.25 | 0.05 | 69 | 1010.3 |
| 20260510083012 | 48 | 35 | 1.0 | 6.0 | 0.00 | 0.25 | 0.05 | 73 | 1010.5 |
| 20260510081538 | 48 | 69 | 2.0 | 5.0 | 0.00 | 0.25 | 0.05 | 71 | 1010.2 |
| 20260510080028 | 49 | 53 | 3.0 | 10.0 | 0.00 | 0.25 | 0.05 | 77 | 1010.0 |
| 20260510074523 | 49 | 15 | 1.0 | 4.0 | 0.00 | 0.25 | 0.05 | 81 | 1010.2 |
| 20260510073020 | 50 | 5 | 0.0 | 4.0 | 0.00 | 0.25 | 0.05 | 90 | 1009.8 |
| 20260510071520 | 50 | 55 | 0.0 | 2.0 | 0.00 | 0.25 | 0.05 | 91 | 1009.3 |
| 20260510070016 | 50 | 333 | 0.0 | 2.0 | 0.01 | 0.25 | 0.05 | 92 | 1009.4 |
| 20260510064510 | 50 | 20 | 0.0 | 2.0 | 0.01 | 0.25 | 0.05 | 92 | 1008.9 |
| 20260510063037 | 51 | 20 | 0.0 | 3.0 | 0.02 | 0.25 | 0.05 | 92 | 1009.1 |
| 20260510061531 | 51 | 348 | 0.0 | 3.0 | 0.02 | 0.25 | 0.05 | 93 | 1008.8 |
| 20260510060035 | 51 | 348 | 0.0 | 2.0 | 0.03 | 0.24 | 0.04 | 93 | 1008.9 |
| 20260510054525 | 51 | 346 | 0.0 | 2.0 | 0.04 | 0.24 | 0.04 | 93 | 1008.9 |
| 20260510053005 | 51 | 350 | 1.0 | 3.0 | 0.03 | 0.23 | 0.03 | 93 | 1008.5 |
| 20260510051506 | 50 | 346 | 1.0 | 3.0 | 0.03 | 0.23 | 0.03 | 93 | 1008.2 |
| 20260510050007 | 51 | 297 | 0.0 | 0.0 | 0.01 | 0.21 | 0.01 | 93 | 1008.2 |
| 20260510044514 | 50 | 297 | 0.0 | 1.0 | 0.00 | 0.20 | 0.00 | 93 | 1007.8 |
| 20260510043005 | 49 | 286 | 0.0 | 0.0 | 0.00 | 0.20 | 0.00 | 92 | 1007.6 |
| 20260510041525 | 50 | 286 | 0.0 | 0.0 | 0.00 | 0.20 | 0.00 | 91 | 1007.2 |
| 20260510040035 | 51 | 286 | 0.0 | 2.0 | 0.00 | 0.20 | 0.00 | 90 | 1006.9 |
| 20260510034518 | 52 | 286 | 1.0 | 2.0 | 0.00 | 0.20 | 0.20 | 90 | 1007.1 |
| 20260510033039 | 52 | 300 | 0.0 | 0.0 | 0.00 | 0.20 | 0.20 | 90 | 1007.4 |
| 20260510031513 | 52 | 300 | 0.0 | 0.0 | 0.00 | 0.20 | 0.20 | 90 | 1007.1 |
| 20260510030013 | 51 | 300 | 0.0 | 1.0 | 0.00 | 0.20 | 0.20 | 90 | 1007.1 |
| 20260510024509 | 50 | 300 | 0.0 | 2.0 | 0.00 | 0.20 | 0.20 | 90 | 1006.7 |
| 20260510023026 | 51 | 300 | 0.0 | 2.0 | 0.00 | 0.20 | 0.20 | 90 | 1006.4 |
| 20260510021525 | 51 | 300 | 0.0 | 2.0 | 0.00 | 0.20 | 0.20 | 90 | 1006.5 |
| 20260510020023 | 52 | 300 | 0.0 | 2.0 | 0.00 | 0.20 | 0.20 | 89 | 1006.6 |
| 20260510014521 | 52 | 295 | 1.0 | 2.0 | 0.00 | 0.20 | 0.20 | 88 | 1006.5 |
| 20260510013014 | 52 | 259 | 1.0 | 6.0 | 0.00 | 0.20 | 0.20 | 88 | 1006.4 |
| 20260510011524 | 53 | 245 | 2.0 | 9.0 | 0.00 | 0.20 | 0.20 | 87 | 1006.0 |
| 20260510010029 | 52 | 260 | 3.0 | 6.0 | 0.01 | 0.20 | 0.20 | 89 | 1006.0 |
| 20260510004525 | 52 | 310 | 2.0 | 5.0 | 0.03 | 0.20 | 0.20 | 89 | 1005.5 |
| 20260510003024 | 52 | 277 | 1.0 | 3.0 | 0.07 | 0.20 | 0.20 | 90 | 1005.1 |
| 20260510001522 | 52 | 327 | 0.0 | 6.0 | 0.13 | 0.20 | 0.20 | 90 | 1005.6 |
| 20260510000020 | 52 | 258 | 5.0 | 9.0 | 0.15 | 0.19 | 0.19 | 89 | 1005.5 |
| 20260509234520 | 52 | 254 | 1.0 | 7.0 | 0.17 | 0.17 | 0.17 | 89 | 1005.8 |
| 20260509233011 | 52 | 72 | 3.0 | 11.0 | 0.13 | 0.13 | 0.13 | 87 | 1006.4 |
| 20260509231525 | 53 | 15 | 5.0 | 19.0 | 0.07 | 0.07 | 0.07 | 84 | 1006.3 |
| 20260509230026 | 57 | 296 | 8.0 | 18.0 | 0.04 | 0.04 | 0.04 | 77 | 1005.4 |
| 20260509224522 | 60 | 319 | 2.0 | 10.0 | 0.00 | 0.00 | 0.00 | 73 | 1004.0 |
| 20260509223021 | 61 | 281 | 0.0 | 2.0 | 0.00 | 0.00 | 0.00 | 70 | 1003.7 |
| 20260509221523 | 61 | 281 | 0.0 | 2.0 | 0.00 | 0.00 | 0.00 | 69 | 1003.4 |
| 20260509220017 | 62 | 281 | 1.0 | 2.0 | 0.00 | 0.00 | 0.00 | 68 | 1003.6 |
| 20260509214507 | 62 | 281 | 1.0 | 3.0 | 0.00 | 0.00 | 0.00 | 67 | 1003.8 |
| 20260509213006 | 62 | 258 | 1.0 | 3.0 | 0.00 | 0.00 | 0.00 | 68 | 1003.8 |
| 20260509211504 | 62 | 313 | 1.0 | 4.0 | 0.00 | 0.00 | 0.00 | 67 | 1004.2 |
| 20260509210015 | 62 | 269 | 1.0 | 4.0 | 0.00 | 0.00 | 0.00 | 67 | 1004.1 |
| 20260509204508 | 63 | 324 | 2.0 | 8.0 | 0.00 | 0.00 | 0.00 | 68 | 1004.1 |
| 20260509203007 | 62 | 266 | 1.0 | 7.0 | 0.00 | 0.00 | 0.00 | 69 | 1004.2 |
| 20260509201507 | 63 | 260 | 3.0 | 8.0 | 0.00 | 0.00 | 0.00 | 64 | 1004.4 |